User: anonymous   Login
Location: ???????
(55.4362°N, 38.1183°E)
Time: 22:09:25
(UTC+00:00)
Language:

RS-44 - Orbit

View from above orbital plane
View from above orbital plane
View from above satellite
View from above satellite

Ground track
Ground track

The orbit data is extracted from the following two-line orbital elements,

1 44909U 19096E   21338.83052323  .00000029  00000-0  64813-4 0  9991
2 44909  82.5217 359.6041 0218317  54.9756 307.1618 12.79711390 90611
Epoch (UTC): 04 December 2021 19:55:57
Eccentricity: 0.0218317
inclination: 82.5217°
perigee height: 1174 km
apogee height: 1511 km
right ascension of ascending node: 359.6041°
argument of perigee: 54.9756°
revolutions per day: 12.79711390
mean anomaly at epoch: 307.1618°
orbit number at epoch: 9061

The dashed part of the orbit path shows where the satellite is in the earth's shadow,  

DLR